| time (UTC) | temp C | wind direction | speed KPH | gust KPH | rain 1hr cm | rain 24hr cm | rain mn cm | humidity % | barometer mb |
| 20260507194552 | 5 | 253 | 0.0 | 0.0 | 0.00 | 0.00 | 0.00 | 100 | 1018.6 |
| 20260507193053 | 6 | 253 | 0.0 | 0.0 | 0.00 | 0.00 | 0.00 | 100 | 1018.5 |
| 20260507191548 | 7 | 252 | 0.0 | 0.0 | 0.00 | 0.00 | 0.00 | 100 | 1018.3 |
| 20260507190046 | 7 | 217 | 0.0 | 3.2 | 0.00 | 0.00 | 0.00 | 100 | 1018.2 |
| 20260507184545 | 8 | 217 | 0.0 | 0.0 | 0.00 | 0.00 | 0.00 | 100 | 1018.0 |
| 20260507183045 | 8 | 217 | 0.0 | 0.0 | 0.00 | 0.00 | 0.00 | 100 | 1017.8 |
| 20260507181540 | 8 | 216 | 0.0 | 4.8 | 0.00 | 0.00 | 0.00 | 100 | 1017.6 |
| 20260507180039 | 9 | 215 | 0.0 | 1.6 | 0.00 | 0.00 | 0.00 | 100 | 1017.4 |
| 20260507174538 | 10 | 215 | 0.0 | 4.8 | 0.00 | 0.00 | 0.00 | 100 | 1017.2 |
| 20260507173043 | 10 | 229 | 0.0 | 1.6 | 0.00 | 0.00 | 0.00 | 100 | 1017.1 |
| 20260507171545 | 10 | 244 | 0.0 | 6.4 | 0.00 | 0.00 | 0.00 | 100 | 1017.0 |
| 20260507170034 | 10 | 198 | 0.0 | 4.8 | 0.00 | 0.00 | 0.00 | 100 | 1016.8 |
| 20260507164533 | 11 | 211 | 1.6 | 6.4 | 0.00 | 0.00 | 0.00 | 100 | 1016.8 |
| 20260507163032 | 11 | 205 | 1.6 | 16.1 | 0.00 | 0.00 | 0.00 | 100 | 1016.8 |
| 20260507161531 | 12 | 211 | 3.2 | 11.3 | 0.00 | 0.00 | 0.00 | 100 | 1016.8 |
| 20260507160032 | 11 | 203 | 1.6 | 11.3 | 0.00 | 0.00 | 0.00 | 100 | 1016.8 |
| 20260507154534 | 12 | 207 | 9.7 | 16.1 | 0.00 | 0.00 | 0.00 | 100 | 1016.8 |
| 20260507153029 | 13 | 200 | 4.8 | 16.1 | 0.00 | 0.00 | 0.00 | 100 | 1016.7 |
| 20260507151528 | 13 | 229 | 6.4 | 16.1 | 0.00 | 0.00 | 0.00 | 100 | 1016.7 |
| 20260507150027 | 13 | 175 | 12.9 | 22.5 | 0.00 | 0.00 | 0.00 | 100 | 1016.7 |
| 20260507144536 | 13 | 194 | 11.3 | 20.9 | 0.00 | 0.00 | 0.00 | 100 | 1016.5 |
| 20260507143025 | 13 | 172 | 12.9 | 20.9 | 0.00 | 0.00 | 0.00 | 100 | 1016.4 |
| 20260507141525 | 13 | 186 | 16.1 | 22.5 | 0.00 | 0.00 | 0.00 | 100 | 1016.5 |
| 20260507140024 | 13 | 205 | 12.9 | 22.5 | 0.00 | 0.00 | 0.00 | 100 | 1016.6 |
| 20260507134525 | 13 | 198 | 12.9 | 22.5 | 0.00 | 0.00 | 0.00 | 100 | 1016.6 |
| 20260507133023 | 12 | 186 | 14.5 | 22.5 | 0.00 | 0.00 | 0.00 | 100 | 1016.6 |
| 20260507131521 | 11 | 184 | 12.9 | 24.1 | 0.00 | 0.00 | 0.00 | 100 | 1016.5 |
| 20260507130018 | 11 | 200 | 11.3 | 24.1 | 0.00 | 0.00 | 0.00 | 100 | 1016.3 |
| 20260507124516 | 13 | 179 | 17.7 | 29.0 | 0.00 | 0.00 | 0.00 | 100 | 1016.1 |
| 20260507123014 | 14 | 163 | 1.6 | 6.4 | 0.00 | 0.00 | 0.00 | 85 | 1016.0 |
| 20260507121514 | 14 | 300 | 3.2 | 12.9 | 0.00 | 0.00 | 0.00 | 100 | 1016.0 |
| 20260507120013 | 13 | 331 | 3.2 | 14.5 | 0.00 | 0.00 | 0.00 | 100 | 1015.9 |
| 20260507114512 | 13 | 13 | 3.2 | 12.9 | 0.00 | 0.00 | 0.00 | 100 | 1015.9 |
| 20260507113014 | 13 | 340 | 6.4 | 19.3 | 0.00 | 0.00 | 0.00 | 100 | 1015.8 |
| 20260507111513 | 14 | 347 | 4.8 | 14.5 | 0.00 | 0.00 | 0.00 | 85 | 1015.7 |
| 20260507110008 | 15 | 294 | 3.2 | 8.0 | 0.00 | 0.00 | 0.00 | 88 | 1015.7 |
| 20260507104508 | 14 | 281 | 1.6 | 9.7 | 0.00 | 0.00 | 0.00 | 100 | 1015.7 |
| 20260507103004 | 13 | 289 | 3.2 | 6.4 | 0.00 | 0.00 | 0.00 | 94 | 1015.6 |
| 20260507101600 | 13 | 43 | 4.8 | 12.9 | 0.00 | 0.00 | 0.00 | 100 | 1015.6 |
| 20260507100059 | 14 | 292 | 3.2 | 11.3 | 0.00 | 0.00 | 0.00 | 100 | 1015.6 |
| 20260507094555 | 13 | 292 | 1.6 | 11.3 | 0.00 | 0.00 | 0.00 | 100 | 1015.6 |
| 20260507093059 | 13 | 317 | 4.8 | 12.9 | 0.00 | 0.00 | 0.00 | 100 | 1015.5 |
| 20260507091556 | 13 | 316 | 6.4 | 14.5 | 0.00 | 0.00 | 0.00 | 100 | 1015.5 |
| 20260507090046 | 13 | 319 | 1.6 | 9.7 | 0.00 | 0.00 | 0.00 | 100 | 1015.5 |
| 20260507084546 | 12 | 344 | 3.2 | 17.7 | 0.00 | 0.00 | 0.00 | 100 | 1015.6 |
| 20260507083039 | 12 | 50 | 1.6 | 9.7 | 0.00 | 0.00 | 0.00 | 100 | 1015.5 |
| 20260507081536 | 11 | 330 | 0.0 | 8.0 | 0.00 | 0.00 | 0.00 | 100 | 1015.5 |
| 20260507080038 | 11 | 329 | 4.8 | 14.5 | 0.00 | 0.00 | 0.00 | 100 | 1015.4 |
| 20260507074530 | 10 | 320 | 4.8 | 11.3 | 0.00 | 0.00 | 0.00 | 100 | 1015.4 |
| 20260507073028 | 10 | 311 | 4.8 | 12.9 | 0.00 | 0.00 | 0.00 | 100 | 1015.3 |
| 20260507071526 | 10 | 339 | 1.6 | 9.7 | 0.00 | 0.00 | 0.00 | 100 | 1015.2 |
| 20260507070023 | 9 | 329 | 1.6 | 8.0 | 0.00 | 0.00 | 0.00 | 100 | 1015.3 |
| 20260507064522 | 8 | 342 | 0.0 | 9.7 | 0.00 | 0.00 | 0.00 | 100 | 1015.2 |
| 20260507063016 | 7 | 311 | 0.0 | 6.4 | 0.00 | 0.00 | 0.00 | 100 | 1015.0 |
| 20260507061511 | 7 | 336 | 3.2 | 8.0 | 0.00 | 0.00 | 0.00 | 100 | 1015.0 |
| 20260507060011 | 6 | 338 | 1.6 | 9.7 | 0.00 | 0.00 | 0.00 | 100 | 1014.9 |
| 20260507054504 | 5 | 324 | 3.2 | 9.7 | 0.00 | 0.00 | 0.00 | 100 | 1014.9 |
| 20260507053107 | 5 | 315 | 3.2 | 9.7 | 0.00 | 0.00 | 0.00 | 100 | 1014.8 |
| 20260507051556 | 3 | 331 | 3.2 | 6.4 | 0.00 | 0.00 | 0.00 | 100 | 1014.7 |
| 20260507050052 | 3 | 335 | 3.2 | 6.4 | 0.00 | 0.00 | 0.00 | 100 | 1014.6 |
| 20260507044600 | 2 | 355 | 3.2 | 6.4 | 0.00 | 0.00 | 0.00 | 100 | 1014.5 |
| 20260507043051 | 2 | 324 | 3.2 | 6.4 | 0.00 | 0.00 | 0.00 | 100 | 1014.6 |
| 20260507041549 | 2 | 324 | 1.6 | 4.8 | 0.00 | 0.00 | 0.00 | 100 | 1014.6 |
| 20260507040046 | 1 | 327 | 3.2 | 6.4 | 0.00 | 0.00 | 0.00 | 100 | 1014.4 |
| 20260507034544 | 1 | 333 | 3.2 | 4.8 | 0.00 | 0.00 | 0.00 | 100 | 1014.4 |
| 20260507033040 | 1 | 333 | 1.6 | 6.4 | 0.00 | 0.00 | 0.00 | 100 | 1014.2 |
| 20260507031636 | 0 | 335 | 3.2 | 6.4 | 0.00 | 0.00 | 0.00 | 100 | 1014.1 |
| 20260507030035 | 0 | 343 | 3.2 | 6.4 | 0.00 | 0.00 | 0.00 | 100 | 1013.9 |
| 20260507024514 | 0 | 345 | 3.2 | 4.8 | 0.00 | 0.00 | 0.00 | 100 | 1013.8 |
| 20260507023012 | 0 | 46 | 3.2 | 4.8 | 0.00 | 0.00 | 0.00 | 100 | 1013.6 |
| 20260507021517 | 0 | 46 | 0.0 | 1.6 | 0.00 | 0.00 | 0.00 | 100 | 1013.6 |
| 20260507020008 | 0 | 46 | 0.0 | 3.2 | 0.00 | 0.00 | 0.00 | 100 | 1013.6 |
| 20260507014507 | 0 | 46 | 1.6 | 4.8 | 0.00 | 0.00 | 0.00 | 100 | 1013.6 |
| 20260507013005 | 0 | 46 | 0.0 | 3.2 | 0.00 | 0.00 | 0.00 | 100 | 1013.6 |
| 20260507011504 | 0 | 46 | 1.6 | 4.8 | 0.00 | 0.00 | 0.00 | 100 | 1013.6 |
| 20260507010003 | 0 | 46 | 0.0 | 1.6 | 0.00 | 0.00 | 0.00 | 100 | 1013.5 |
| 20260507004502 | 0 | 46 | 0.0 | 3.2 | 0.00 | 0.00 | 0.00 | 100 | 1013.4 |
| 20260507003001 | 0 | 46 | 0.0 | 3.2 | 0.00 | 0.00 | 0.00 | 100 | 1013.4 |
| 20260507001600 | 0 | 46 | 0.0 | 3.2 | 0.00 | 0.00 | 0.00 | 100 | 1013.5 |
| 20260507000058 | 0 | 46 | 1.6 | 3.2 | 0.00 | 0.00 | 0.00 | 100 | 1013.4 |
| 20260506234556 | 0 | 119 | 1.6 | 3.2 | 0.00 | 0.00 | 0.00 | 100 | 1013.3 |
| 20260506233055 | 1 | 119 | 0.0 | 0.0 | 0.00 | 0.00 | 0.00 | 100 | 1013.4 |
| 20260506231552 | 1 | 119 | 0.0 | 3.2 | 0.00 | 0.00 | 0.00 | 100 | 1013.4 |
| 20260506230055 | 1 | 119 | 1.6 | 3.2 | 0.00 | 0.00 | 0.00 | 100 | 1013.4 |
| 20260506224600 | 1 | 119 | 0.0 | 0.0 | 0.00 | 0.00 | 0.00 | 100 | 1013.3 |
| 20260506223045 | 2 | 119 | 0.0 | 0.0 | 0.00 | 0.00 | 0.00 | 100 | 1013.2 |
| 20260506221542 | 2 | 119 | 0.0 | 0.0 | 0.00 | 0.00 | 0.00 | 100 | 1013.2 |
| 20260506220039 | 2 | 119 | 0.0 | 0.0 | 0.00 | 0.00 | 0.00 | 100 | 1013.2 |
| 20260506214546 | 3 | 119 | 0.0 | 3.2 | 0.00 | 0.00 | 0.00 | 100 | 1013.1 |
| 20260506213042 | 3 | 120 | 0.0 | 0.0 | 0.00 | 0.00 | 0.00 | 100 | 1012.9 |
| 20260506211536 | 3 | 120 | 0.0 | 1.6 | 0.00 | 0.00 | 0.00 | 100 | 1012.9 |
| 20260506210039 | 4 | 120 | 0.0 | 0.0 | 0.00 | 0.00 | 0.00 | 100 | 1012.9 |
| 20260506204535 | 4 | 120 | 0.0 | 0.0 | 0.00 | 0.00 | 0.00 | 100 | 1013.0 |
| 20260506203035 | 4 | 120 | 0.0 | 3.2 | 0.00 | 0.00 | 0.00 | 100 | 1012.9 |
| 20260506201533 | 3 | 107 | 0.0 | 3.2 | 0.00 | 0.00 | 0.00 | 100 | 1012.8 |